Showing default

KUIPER-00046, 64506

Orbit data source: Space-Track

KUIPER-00046, 64506 is a payload satellite owned by Kuiper Systems (US) in LEO that was launched on Mon, 23 Jun 2025 UTC via an ATLAS V 551 launch vehicle from the Air Force Eastern Test Range (AFETR). Payload-class satellites include a variety of spacecraft equipped with specific instruments for various scientific and technological missions. These include communications satellites like Starlink; space stations such as the ISS; scientific satellites like the Hubble; Earth observation satellites from companies like Planet Labs, Umbra, and HawkEye 360; GPS; miniature CubeSats for education and research; and military/defense satellites.

Loading next visibility...
Identifier
64506, 2025-134G
Orbit
LEO
Country
Flag of USUS
Related business
Manufacturer
Kuiper Systems
Mission
Operational Commercial Communications
Bus & Motor
KUIPER, Unknown motor
Mass
~490 kg wet, ~490 kg dry
Launch date (UTC)
2025-06-23 (1 year ago)
Launch vehicle
ATLAS V 551
Launch site
Air Force Eastern Test Range (AFETR)
Object type
Payload
Rocket body
Debris
Shape & HBR
Box + 2 Pan, 3.4 m
Radar Cross Section
2.326 m², Large (>1 m²)

Expand to show TLE details & history
Last TLE update: 12 hours ago

TLE from 12 hours ago
0 KUIPER-00046
1 64506U 25134G   26171.33237933  .00001985  00000-0  28932-3 0  9996
2 64506  51.8973 149.1494 0000626  73.2855 286.8176 14.79925374 55135
Epoch: 2026-06-20T07:58Z
TLE epoch observation values (Epoch: 2026-06-20T07:58:37.574Z)
Latitude
-0°
Longitude
120.94432°
Altitude
630.179 km
Speed
7.545 km/s
True Right ascension
09h 56m 35s
True Declination
0° 00' 00"
Sunlit
Object was in daylight at epoch
Visualization orbit readout
Latitude
Unknown
Longitude
Unknown
Altitude
Unknown
Speed
Unknown
Apparent Right ascension
Unknown
Apparent Declination
Unknown
Sunlit
N/A
Visualization observer readout
Local Sidereal Time
07:15:54
Azimuth
Unknown
Elevation
Unknown
Doppler factor
Unknown
Orbital elements
Apogee altitude
630.45 km
Perigee altitude
629.573 km
Semi-major axis
7,008.148 km
Eccentricity
0.00006
Inclination
51.8973°
RAAN
149.1494°
Arg. of periapsis
73.2855°
True anomaly
286.81073°
Mean anomaly
286.8176°
Eccentric anomaly
286.81417°
Mean motion
3.69946 °/min
Orbital period
97.31 mins
BSTAR
0.00028932
Loading maneuver chart data...
Computing Atmospheric mass density...
Loading historical data...
Loading historical data...
Loading historical data...
Loading historical data...
Loading historical data...
Loading historical data...
Loading historical data...

Documentation

Showing up to 5 results
|